Weather History for KICL - January, 2014

Change the Weather History Date:

Saturday, January 18, 2014

  Actual Average Record
Temperature  
Mean Temperature 26 °F -  
Max Temperature 41 °F 33 °F 59 °F (2015)
Min Temperature 12 °F 14 °F -7 °F (1997)
Degree Days  
Heating Degree Days 38    
Moisture  
Dew Point 19 °F    
Average Humidity 68    
Maximum Humidity 93    
Minimum Humidity 52    
Precipitation  
Precipitation 0.01 in - - ()
Sea Level Pressure  
Sea Level Pressure 29.85 in    
Wind  
Wind Speed 13 mph (WNW)    
Max Wind Speed 32 mph    
Max Gust Speed 53 mph    
Visibility 10 miles    
Events Rain    
Averages and records for this station are not official NWS values.
T = Trace of Precipitation, MM = Missing Value Source: NWS Daily Summary

Daily Weather History Graph

Daily Weather History Graph

Search for Another Location

Airport or City:

Trip Planner

Search our weather history database for the weather conditions in past years. The results will help you decide how hot, cold, wet, or windy it might be!

Date:

Astronomy

Jan. 18, 2014 Rise Set
Actual Time 7:40 AM CST 5:20 PM CST
Civil Twilight 7:10 AM CST 5:50 PM CST
Nautical Twilight 6:37 AM CST 6:24 PM CST
Astronomical Twilight 6:04 AM CST 6:57 PM CST
Moon 8:04 PM CST (1/18) 8:39 AM CST (1/18)
Length of Visible Light 10h 40m
Length of Day
9h 40m
Waning Gibbous, 94% of the Moon is Illuminated
Jan 18
Waning Gibbous
Jan 23
Last Quarter
Jan 30
New
Feb 6
First Quarter
Feb 14
Full

Hourly Weather History & Observations

Time (CST) Temp. Windchill Dew Point Humidity Pressure Visibility Wind Dir Wind Speed Gust Speed Precip Events Conditions
12:15 AM 24.8 °F 15.3 °F 10.4 °F 54% 29.90 in 10.0 mi South 9.2 mph - N/A   Overcast
12:35 AM 24.8 °F 14.6 °F 10.4 °F 54% 29.87 in 10.0 mi South 10.4 mph - N/A   Overcast
12:55 AM 26.6 °F 16.8 °F 12.2 °F 55% 29.85 in 10.0 mi South 10.4 mph - N/A   Overcast
1:15 AM 26.6 °F 16.2 °F 14.0 °F 59% 29.83 in 10.0 mi South 11.5 mph - N/A   Overcast
1:35 AM 26.6 °F 16.2 °F 15.8 °F 64% 29.82 in 10.0 mi South 11.5 mph - N/A   Overcast
1:55 AM 28.4 °F 18.5 °F 15.8 °F 59% 29.79 in 10.0 mi South 11.5 mph - N/A   Mostly Cloudy
2:15 AM 28.4 °F 18.5 °F 15.8 °F 59% 29.77 in 10.0 mi South 11.5 mph - N/A   Overcast
2:35 AM 28.4 °F 18.5 °F 17.6 °F 64% 29.76 in 10.0 mi South 11.5 mph - N/A   Overcast
2:55 AM 30.2 °F 21.3 °F 17.6 °F 60% 29.74 in 10.0 mi South 10.4 mph - N/A   Overcast
3:15 AM 30.2 °F 22.6 °F 17.6 °F 60% 29.73 in 10.0 mi South 8.1 mph 16.1 mph N/A   Overcast
3:35 AM 32.0 °F 23.0 °F 17.6 °F 55% 29.73 in 10.0 mi South 11.5 mph - N/A   Overcast
3:55 AM 32.0 °F 22.1 °F 17.6 °F 55% 29.71 in 10.0 mi SSW 13.8 mph - N/A   Overcast
4:15 AM 32.0 °F 24.2 °F 17.6 °F 55% 29.70 in 10.0 mi SSW 9.2 mph 17.3 mph N/A   Overcast
4:35 AM 32.0 °F 23.6 °F 17.6 °F 55% 29.68 in 10.0 mi SSW 10.4 mph - N/A   Overcast
4:55 AM 33.8 °F 27.0 °F 17.6 °F 52% 29.67 in 10.0 mi SSW 8.1 mph - N/A   Overcast
5:15 AM 33.8 °F 27.0 °F 19.4 °F 56% 29.66 in 10.0 mi SW 8.1 mph - N/A   Overcast
5:35 AM 33.8 °F 26.4 °F 19.4 °F 56% 29.64 in 10.0 mi SW 9.2 mph - N/A   Overcast
5:55 AM 33.8 °F 27.7 °F 19.4 °F 56% 29.65 in 10.0 mi WSW 6.9 mph - N/A   Mostly Cloudy
6:15 AM 33.8 °F 25.8 °F 19.4 °F 56% 29.65 in 10.0 mi WSW 10.4 mph - N/A   Mostly Cloudy
6:35 AM 33.8 °F 25.3 °F 21.2 °F 60% 29.64 in 10.0 mi WSW 11.5 mph - N/A   Overcast
6:55 AM 35.6 °F 29.2 °F 21.2 °F 56% 29.64 in 10.0 mi West 8.1 mph - N/A   Overcast
7:15 AM 37.4 °F 28.9 °F 24.8 °F 60% 29.64 in 10.0 mi West 13.8 mph - N/A   Mostly Cloudy
7:35 AM 35.6 °F 27.5 °F 23.0 °F 60% 29.64 in 10.0 mi West 11.5 mph - N/A   Clear
7:55 AM 37.4 °F 28.5 °F 24.8 °F 60% 29.65 in 10.0 mi WNW 15.0 mph - N/A   Clear
8:15 AM 39.2 °F 31.6 °F 26.6 °F 61% 29.65 in 10.0 mi WNW 12.7 mph - N/A   Mostly Cloudy
8:35 AM 39.2 °F 32.5 °F 26.6 °F 61% 29.66 in 10.0 mi WNW 10.4 mph 18.4 mph N/A   Mostly Cloudy
8:55 AM 41.0 °F 33.9 °F 28.4 °F 61% 29.66 in 10.0 mi West 12.7 mph - N/A   Overcast
9:15 AM 39.2 °F 29.6 °F 32.0 °F 75% 29.68 in 9.0 mi WNW 19.6 mph 32.2 mph N/A Rain Light Rain
9:35 AM 39.2 °F 30.5 °F 32.0 °F 75% 29.68 in 10.0 mi WNW 16.1 mph - N/A   Mostly Cloudy
9:55 AM 41.0 °F 32.8 °F 32.0 °F 70% 29.68 in 10.0 mi WNW 16.1 mph 25.3 mph N/A   Overcast
10:15 AM 41.0 °F 32.8 °F 30.2 °F 65% 29.69 in 10.0 mi WNW 16.1 mph 24.2 mph N/A   Mostly Cloudy
10:35 AM 41.0 °F 32.5 °F 32.0 °F 70% 29.69 in 10.0 mi WNW 17.3 mph 28.8 mph N/A   Mostly Cloudy
10:55 AM 41.0 °F 31.9 °F 30.2 °F 65% 29.68 in 10.0 mi WNW 19.6 mph 29.9 mph N/A   Mostly Cloudy
11:15 AM 39.2 °F 28.5 °F 32.0 °F 75% 29.70 in 4.0 mi NW 24.2 mph 40.3 mph N/A Rain Light Rain
11:35 AM 39.2 °F 27.8 °F 32.0 °F 75% 29.70 in 10.0 mi NW 27.6 mph 38.0 mph N/A   Mostly Cloudy
11:55 AM 39.2 °F 27.8 °F 26.6 °F 61% 29.72 in 10.0 mi NW 27.6 mph 41.4 mph 0.01 in   Mostly Cloudy
12:15 PM 37.4 °F 25.6 °F 24.8 °F 60% 29.73 in 10.0 mi NNW 26.5 mph 52.9 mph N/A   Overcast
12:35 PM 35.6 °F 22.5 °F 24.8 °F 65% 29.74 in 10.0 mi NNW 29.9 mph 41.4 mph N/A   Overcast
12:55 PM 33.8 °F 21.9 °F 24.8 °F 70% 29.75 in 10.0 mi NNW 21.9 mph 35.7 mph N/A   Overcast
1:15 PM 33.8 °F 21.0 °F 23.0 °F 65% 29.76 in 10.0 mi NNW 25.3 mph 42.6 mph N/A   Overcast
1:35 PM 33.8 °F 22.5 °F 23.0 °F 65% 29.77 in 10.0 mi NW 19.6 mph 32.2 mph N/A   Overcast
1:55 PM 32.0 °F 17.9 °F 21.2 °F 64% 29.79 in 10.0 mi NNW 28.8 mph 39.1 mph N/A   Overcast
2:15 PM 30.2 °F 14.7 °F 21.2 °F 69% 29.82 in 10.0 mi NW 32.2 mph 41.4 mph N/A   Overcast
2:35 PM 30.2 °F 14.7 °F 19.4 °F 64% 29.85 in 10.0 mi NNW 32.2 mph 48.3 mph N/A   Overcast
2:55 PM 28.4 °F 12.7 °F 19.4 °F 69% 29.87 in 10.0 mi NNW 29.9 mph 39.1 mph N/A   Overcast
3:15 PM 28.4 °F 13.3 °F 17.6 °F 64% 29.90 in 10.0 mi NNW 27.6 mph 39.1 mph N/A   Overcast
3:35 PM 26.6 °F 12.0 °F 17.6 °F 69% 29.92 in 10.0 mi NNW 23.0 mph 38.0 mph N/A   Overcast
3:55 PM 26.6 °F 11.1 °F 17.6 °F 69% 29.95 in 10.0 mi NNW 26.5 mph 39.1 mph N/A   Overcast
4:15 PM 26.6 °F 10.3 °F 15.8 °F 64% 29.97 in 10.0 mi NNW 29.9 mph 38.0 mph N/A   Overcast
4:35 PM 24.8 °F 10.0 °F 15.8 °F 69% 29.99 in 10.0 mi NNW 21.9 mph 33.4 mph N/A   Overcast
4:55 PM 24.8 °F 10.3 °F 15.8 °F 69% 30.00 in 10.0 mi NNW 20.7 mph 34.5 mph N/A   Overcast
5:15 PM 24.8 °F 8.4 °F 15.8 °F 69% 30.03 in 10.0 mi NNW 27.6 mph 34.5 mph N/A   Overcast
5:35 PM 24.8 °F 11.5 °F 15.8 °F 69% 30.04 in 10.0 mi NNW 17.3 mph 25.3 mph N/A   Overcast
5:55 PM 24.8 °F 9.0 °F 15.8 °F 69% 30.05 in 10.0 mi North 25.3 mph 33.4 mph N/A   Overcast
6:15 PM 24.8 °F 10.3 °F 15.8 °F 69% 30.05 in 10.0 mi North 20.7 mph 27.6 mph N/A   Overcast
6:35 PM 23.0 °F 9.6 °F 15.8 °F 74% 30.07 in - NNW 16.1 mph - N/A   Overcast
6:55 PM 23.0 °F 9.6 °F 15.8 °F 74% 30.07 in 10.0 mi NNW 16.1 mph 24.2 mph N/A   Overcast
7:15 PM 23.0 °F 10.1 °F 15.8 °F 74% 30.09 in 10.0 mi NNW 15.0 mph 23.0 mph N/A   Scattered Clouds
7:35 PM 21.2 °F 9.5 °F 15.8 °F 80% 30.10 in 10.0 mi NNW 11.5 mph 19.6 mph N/A   Clear
7:55 PM 21.2 °F 11.7 °F 15.8 °F 80% 30.09 in 10.0 mi NNW 8.1 mph - N/A   Clear
8:15 PM 19.4 °F 11.5 °F 15.8 °F 86% 30.08 in 10.0 mi NNW 5.8 mph - N/A   Clear
8:35 PM 19.4 °F 9.5 °F 15.8 °F 86% 30.09 in 10.0 mi NNW 8.1 mph - N/A   Clear
8:55 PM 19.4 °F - 14.0 °F 80% 30.09 in 10.0 mi Calm Calm - N/A   Clear
9:15 PM 19.4 °F 11.5 °F 15.8 °F 86% 30.10 in 10.0 mi West 5.8 mph - N/A   Clear
9:35 PM 17.6 °F 12.3 °F 14.0 °F 86% 30.11 in 10.0 mi West 3.5 mph - N/A   Clear
9:55 PM 17.6 °F - 14.0 °F 86% 30.11 in 10.0 mi Calm Calm - N/A   Clear
10:15 PM 14.0 °F 6.5 °F 12.2 °F 93% 30.10 in 10.0 mi South 4.6 mph - N/A   Clear
10:35 PM 14.0 °F - 10.4 °F 86% 30.10 in 10.0 mi Calm Calm - N/A   Clear
10:55 PM 14.0 °F - 10.4 °F 86% 30.09 in 10.0 mi Calm Calm - N/A   Clear
11:15 PM 12.2 °F 1.7 °F 10.4 °F 92% 30.09 in 10.0 mi South 6.9 mph - N/A   Clear
11:35 PM 14.0 °F 6.5 °F 12.2 °F 93% 30.08 in 10.0 mi SSW 4.6 mph - N/A   Clear
11:55 PM 15.8 °F - 12.2 °F 86% 30.08 in 10.0 mi Calm Calm - N/A   Clear